TimeMST,TemperatureF,Dew PointF,Humidity,Sea Level PressureIn,VisibilityMPH,Wind Direction,Wind SpeedMPH,Gust SpeedMPH,PrecipitationIn,Events,Conditions,WindDirDegrees,DateUTC
12:53 AM,25.0,21.0,85,30.17,10.0,West,4.6,-,N/A,,Clear,260,2012-11-20 07:53:00
1:53 AM,25.0,21.9,88,30.17,10.0,WNW,5.8,-,N/A,,Clear,290,2012-11-20 08:53:00
2:53 AM,23.0,19.9,88,30.17,10.0,WSW,4.6,-,N/A,,Clear,240,2012-11-20 09:53:00
3:53 AM,25.0,19.0,78,30.16,10.0,South,3.5,-,N/A,,Clear,180,2012-11-20 10:53:00
4:53 AM,32.0,24.1,73,30.16,10.0,West,5.8,-,N/A,,Clear,260,2012-11-20 11:53:00
5:53 AM,27.0,21.9,81,30.18,10.0,WSW,5.8,-,N/A,,Clear,250,2012-11-20 12:53:00
6:53 AM,26.1,21.0,81,30.21,10.0,West,4.6,-,N/A,,Clear,260,2012-11-20 13:53:00
7:53 AM,37.0,30.9,79,30.18,10.0,SSW,4.6,-,N/A,,Clear,210,2012-11-20 14:53:00
8:53 AM,48.9,30.0,48,30.15,10.0,West,4.6,-,N/A,,Clear,260,2012-11-20 15:53:00
9:53 AM,59.0,24.1,26,30.14,10.0,WSW,18.4,-,N/A,,Clear,240,2012-11-20 16:53:00
10:53 AM,62.1,23.0,22,30.12,10.0,WSW,15.0,-,N/A,,Clear,240,2012-11-20 17:53:00
11:53 AM,66.0,21.0,18,30.07,10.0,WSW,20.7,27.6,N/A,,Clear,250,2012-11-20 18:53:00
12:53 PM,66.9,21.0,17,30.05,10.0,WSW,21.9,27.6,N/A,,Clear,240,2012-11-20 19:53:00
1:53 PM,68.0,21.9,17,30.02,10.0,SW,16.1,23.0,N/A,,Clear,230,2012-11-20 20:53:00
2:53 PM,68.0,21.0,17,30.01,10.0,WSW,15.0,-,N/A,,Clear,240,2012-11-20 21:53:00
3:53 PM,62.1,23.0,22,30.04,10.0,WSW,9.2,-,N/A,,Clear,250,2012-11-20 22:53:00
4:53 PM,51.1,23.0,33,30.05,10.0,SSW,8.1,-,N/A,,Clear,200,2012-11-20 23:53:00
5:53 PM,43.0,23.0,45,30.09,10.0,SSW,10.4,-,N/A,,Clear,200,2012-11-21 00:53:00
6:53 PM,43.0,24.1,47,30.09,10.0,SW,9.2,-,N/A,,Clear,220,2012-11-21 01:53:00
7:53 PM,39.0,23.0,53,30.07,10.0,SW,4.6,-,N/A,,Clear,220,2012-11-21 02:53:00
8:53 PM,42.1,23.0,47,30.02,10.0,Calm,Calm,-,N/A,,Clear,0,2012-11-21 03:53:00
9:53 PM,35.1,23.0,61,30.01,10.0,SW,9.2,-,N/A,,Clear,230,2012-11-21 04:53:00
10:53 PM,37.0,21.9,54,29.99,10.0,SSE,3.5,-,N/A,,Clear,160,2012-11-21 05:53:00
11:53 PM,32.0,21.9,66,29.98,10.0,Calm,Calm,-,N/A,,Clear,0,2012-11-21 06:53:00